星链-30779 (STARLINK-30779 )

导读

STARLINK-30779是美国太空探索技术公司(SpaceX)星链(Starlink)卫星互联网项目的一颗卫星,于2023年10月29日发射升空。它属于星链星座扩容卫星,旨在全球范围内提供低延迟、高速率的卫星互联网服务,进一步补充星链星座的网络覆盖能力,推动星链星座全球组网进程。

Basic Information
目录编号:
58160
目录名称:
STARLINK-30779
国际标识:
2023-166L
轨道中心:
EARTH
卫星名称:
星链-30779
卫星全名:
星链-30779 (STARLINK-30779 )
卫星状态:
在轨 (已飞行963 天)
发射日期:
2023-10-29 UTC
国别 :
美国 (US)
星等 :
--
Orbit Information
数据来源 国际轨道数据 AOE轨道数据
星历时间 2026-06-17T11:52:19+0800
1天前
查看轨道信息
2026-06-15T02:00:00+0800
3天前
查看轨道信息
半长轴 6848.873km 6848.871km
偏心率 0.0001379 0.0001341
轨道倾角 53.160° 53.160°
近地点辐角 98.287° 92.178°
升交点赤经 117.243° 128.467°
平近点角 261.829° 284.164°
近地点 469.791km 469.815km
远地点 471.681km 471.653km
周期 94.013分钟 94.013分钟
每日圈数 15.317015 15.317022
Detailed Information
固有亮度:
5
最大亮度:
0.3
卫星平台:
Starlink v2.0 mini
覆盖范围:
全球
运营商:
太空探索技术公司
运营商所在国:
美国
制造商(研发单位):
太空探索技术公司
制造商所在国:
美国
使用方式:
暂无
Satellite Introduction
星链(Starlink)计划是由太空探索技术公司(SpaceX)提出的一个巨型低轨卫星互联网星座项目,计划在2019年至2024年间在太空搭建由约1.2万颗卫星组成的“星链”网络,其中1584颗将部署在地球上空550千米处的近地轨道,并从2020年开始工作。该卫星仍在工作。
2D Orbit Map
3D Orbit Map
Orbit Altitude Analysis Chart
Orbit Inclination Analysis Chart
Orbit Comprehensive Analysis Chart
View Comprehensive Chart